Location: Asheville, NC
(35.6000°N, 82.5500°W)
Time: 06:02:51
(UTC-04:00)

Vanguard 1 - Pass Details

Date: 10 December 2017
Orbit: 650 x 3833 km, 34.2° (Epoch: 22 July)

Event Time Altitude Azimuth Distance (km) Brightness Sun altitude
Rises 14:10:19 0° 276° (W) 6,526 14.5 26.2°
Reaches altitude 10° 14:15:22 10° 275° (W) 5,004 14.1 25.7°
Maximum altitude 14:28:00 76° 193° (SSW) 1,470 11.6 24.4°
Drops below altitude 10° 14:34:40 10° 108° (ESE) 2,768 12.3 23.7°
Sets 14:36:43 0° 106° (ESE) 3,502 12.7 23.4°
